Change the Weather History Date:

Friday, January 17, 2014

  Actual Average Record
Temperature  
Mean Temperature 47 °F 46 °F  
Max Temperature 55 °F 56 °F 79 °F (1952)
Min Temperature 38 °F 35 °F 2 °F (1930)
Degree Days  
Heating Degree Days 18 19  
Month to date heating degree days 327 334  
Since 1 July heating degree days 1399 1246  
Cooling Degree Days 0 0  
Month to date cooling degree days 0 0  
Year to date cooling degree days 0 0  
Moisture  
Dew Point 12 °F    
Average Humidity 28    
Maximum Humidity 40    
Minimum Humidity 15    
Precipitation  
Precipitation 0.00 in 0.07 in 0.59 in (1995)
Month to date precipitation 0.33 1.07  
Year to date precipitation 0.33 1.07  
Snow  
Snow 0.00 in 0.00 in 0.70 in (1966)
Month to date snowfall 0.0 0.1  
Since 1 July snowfall 2.1 0.4  
Snow Depth 0.00 in    
Sea Level Pressure  
Sea Level Pressure 30.27 in    
Wind  
Wind Speed 11 mph (NNW)    
Max Wind Speed 21 mph    
Max Gust Speed 26 mph    
Visibility 10 miles    
Events      
T = Trace of Precipitation, MM = Missing Value Source: NWS Daily Summary

Daily Weather History Graph

Daily Weather History Graph

Search for Another Location

Airport or City:

Trip Planner

Search our weather history database for the weather conditions in past years. The results will help you decide how hot, cold, wet, or windy it might be!

Date:

Astronomy

Jan. 17, 2014 Rise Set
Actual Time 7:30 AM CST 5:46 PM CST
Civil Twilight 7:03 AM CST 6:13 PM CST
Nautical Twilight 6:33 AM CST 6:43 PM CST
Astronomical Twilight 6:03 AM CST 7:12 PM CST
Moon 7:26 PM CST (1/17) 8:05 AM CST (1/17)
Length of Visible Light 11h 09m
Length of Day
10h 16m
Full, 98% of the Moon is Illuminated
Jan 17
Full
Jan 23
Last Quarter
Jan 30
New
Feb 6
First Quarter
Feb 14
Full

Hourly Weather History & Observations

Time (CST) Temp. Windchill Dew Point Humidity Pressure Visibility Wind Dir Wind Speed Gust Speed Precip Events Conditions
12:37 AM 50.0 °F - 12.0 °F 22% 30.20 in 8.0 mi NW 11.5 mph - N/A   Mostly Cloudy
12:53 AM 50.0 °F - 10.9 °F 21% 30.19 in 8.0 mi NW 13.8 mph - N/A   Mostly Cloudy
1:53 AM 52.0 °F - 9.0 °F 18% 30.20 in 8.0 mi NNW 15.0 mph - N/A   Overcast
2:53 AM 52.0 °F - 8.1 °F 17% 30.22 in 8.0 mi NW 11.5 mph - N/A   Overcast
3:53 AM 51.1 °F - 10.9 °F 20% 30.24 in 8.0 mi NNW 10.4 mph - N/A   Overcast
4:53 AM 50.0 °F - 10.0 °F 20% 30.25 in 8.0 mi North 16.1 mph - N/A   Overcast
5:53 AM 46.9 °F - 15.1 °F 28% 30.29 in 10.0 mi North 15.0 mph - N/A   Overcast
6:53 AM 44.1 °F 37.4 °F 14.0 °F 30% 30.30 in 10.0 mi North 13.8 mph - N/A   Mostly Cloudy
7:53 AM 39.9 °F 33.4 °F 15.1 °F 36% 30.32 in 10.0 mi North 10.4 mph - N/A   Scattered Clouds
8:53 AM 44.1 °F 37.4 °F 15.1 °F 31% 30.35 in 10.0 mi NNW 13.8 mph - N/A   Scattered Clouds
9:53 AM 46.0 °F 40.2 °F 12.9 °F 26% 30.37 in 10.0 mi North 12.7 mph - N/A   Partly Cloudy
10:53 AM 48.9 °F - 12.0 °F 23% 30.38 in 10.0 mi North 13.8 mph - N/A   Scattered Clouds
11:53 AM 51.1 °F - 12.0 °F 21% 30.35 in 10.0 mi NNW 13.8 mph - N/A   Scattered Clouds
12:53 PM 52.0 °F - 10.0 °F 19% 30.30 in 10.0 mi NNW 13.8 mph - N/A   Partly Cloudy
1:53 PM 53.1 °F - 9.0 °F 17% 30.27 in 10.0 mi NNW 11.5 mph 17.3 mph N/A   Partly Cloudy
2:19 PM 54.0 °F - 9.0 °F 17% 30.27 in 10.0 mi North 12.7 mph - N/A   Partly Cloudy
2:53 PM 55.0 °F - 10.0 °F 17% 30.26 in 10.0 mi NNW 11.5 mph - N/A   Partly Cloudy
3:53 PM 55.0 °F - 9.0 °F 16% 30.25 in 10.0 mi NNW 13.8 mph - N/A   Partly Cloudy
4:53 PM 54.0 °F - 10.9 °F 18% 30.25 in 10.0 mi NNW 6.9 mph - N/A   Partly Cloudy
5:53 PM 48.9 °F - 10.9 °F 22% 30.25 in 10.0 mi NNW 6.9 mph - N/A   Mostly Cloudy
6:53 PM 48.9 °F - 10.9 °F 22% 30.25 in 10.0 mi Calm Calm - N/A   Partly Cloudy
7:53 PM 46.9 °F - 12.0 °F 24% 30.25 in 10.0 mi South 3.5 mph - N/A   Partly Cloudy
8:53 PM 43.0 °F 40.3 °F 15.1 °F 32% 30.24 in 10.0 mi South 4.6 mph - N/A   Clear
9:53 PM 42.1 °F 37.7 °F 16.0 °F 35% 30.23 in 10.0 mi South 6.9 mph - N/A   Clear
10:53 PM 39.0 °F 32.3 °F 18.0 °F 43% 30.21 in 10.0 mi South 10.4 mph - N/A   Clear
11:53 PM 37.9 °F 31.5 °F 18.0 °F 45% 30.19 in 10.0 mi South 9.2 mph - N/A   Clear